Effective Sunday, March 17, 2024, the National Weather Service National Data Buoy Center will discontinue its Dial-A-Buoy Interactive Voice Response system. For more information, see Service Change Notice 24-06 (PDF).

Station GSLM4 - Gravelly Shoal Light, MI Image indicating link to RSS feed of recent meteorological observations for station GSLM4


Conditions at GSLM4 as of
(10:40 pm EST on 02/29/2024)
0340 GMT on 03/01/2024:
     

Click on the graph icon in the table below to see a time series plot of the last five days of that observation.

5-day plot - Wind Direction Wind Direction (WDIR):SSW ( 200 deg true )
5-day plot - Wind Speed Wind Speed (WSPD): 6.0 kts
5-day plot - Wind Gust Wind Gust (GST): 11.1 kts
5-day plot - Atmospheric Pressure Atmospheric Pressure (PRES):30.33 in
5-day plot - Air Temperature Air Temperature (ATMP): 32.2 °F
5-day plot - Wind Chill Wind Chill (CHILL): 25.7 °F
5-day plot - Wind Speed at 10 Meters Wind Speed at 10 meters (WSPD10M): 5.8 kts
5-day plot - Wind Speed at 20 Meters Wind Speed at 20 meters (WSPD20M): 5.8 kts
5-day plot -  Wind Speed, Wind Gust and Atmospheric Pressure Combined plot of Wind Speed, Gust, and Air Pressure
Previous observations
TIME
(EST)
5-day plot - Wind Direction
WDIR
 
5-day plot - Wind Speed
WSPD
kts
5-day plot - Wind Gust
GST
kts
5-day plot - Wave Height
WVHT
ft
5-day plot - Dominant Wave Period
DPD
sec
5-day plot - Average Wave Period
APD
sec
5-day plot - Mean Wave Direction
MWD
 
5-day plot - Atmospheric Pressure
PRES
in
5-day plot - Pressure Tendency
PTDY
in
5-day plot - Air Temperature
ATMP
°F
5-day plot - Water Temperature
WTMP
°F
5-day plot - Dew Point
DEWP
°F
5-day plot - Salinity
SAL
psu
5-day plot - Visibility
VIS
nmi
5-day plot - Tide (above MLLW)
TIDE
ft
2024-02-29 10:30 pmSSW 6.0 13.0----30.33- 32.2-----
2024-02-29 10:20 pmSSW 12.0 15.0----30.33- 32.2-----
2024-02-29 10:10 pmSSW 13.0 15.0----30.33- 32.4-----
2024-02-29 10:00 pmSSW 14.0 17.1----30.33+0.00 32.4-----
2024-02-29 09:50 pmSSW 14.0 15.9----30.34- 32.4-----
2024-02-29 09:40 pmSSW 14.0 17.1----30.34- 32.2-----
2024-02-29 09:30 pmSSW 14.0 17.1----30.34- 32.2-----
2024-02-29 09:20 pmSSW 15.9 18.1----30.34- 32.2-----
2024-02-29 09:10 pmSSW 12.0 15.0----30.34- 32.2-----
2024-02-29 09:00 pmSSW 12.0 15.9----30.34+0.00 32.0-----
2024-02-29 08:50 pmSSW 13.0 15.9----30.34- 32.0-----
2024-02-29 08:40 pmSSW 9.9 14.0----30.34- 31.8-----
2024-02-29 08:30 pmSSW 4.1 15.0----30.34- 31.8-----
2024-02-29 08:20 pmSSW 9.9 17.1----30.34- 31.8-----
2024-02-29 08:10 pmSSW 8.9 15.0----30.34- 31.6-----
2024-02-29 08:00 pmSSW 8.9 15.0----30.33-0.02 31.5-----
2024-02-29 07:50 pmSSW 6.0 15.0----30.33- 31.5-----
2024-02-29 07:40 pmSSW 8.9 13.0----30.33- 31.3-----
2024-02-29 07:30 pmSSW 8.9 15.9----30.33- 31.1-----
2024-02-29 07:20 pmSSW 9.9 18.1----30.32- 30.9-----
2024-02-29 07:10 pmSSW 14.0 18.1----30.32- 30.9-----
2024-02-29 07:00 pmSSW 4.1 12.0----30.33-0.02 30.7-----
2024-02-29 06:50 pmSSW 11.1 18.1----30.33- 30.6-----
2024-02-29 05:40 pm SW 12.0 15.9----30.35- 29.7-----
2024-02-29 05:30 pm SW 15.0 17.1----30.34- 29.5-----
2024-02-29 05:20 pm SW 14.0 18.1----30.34- 29.5-----
2024-02-29 05:10 pm SW 15.9 20.0----30.35- 29.5-----
2024-02-29 05:00 pm SW 14.0 18.1----30.35-0.03 28.9-----
2024-02-29 04:50 pm SW 15.0 21.0----30.35- 28.9-----
2024-02-29 04:40 pm SW 15.0 19.0----30.35- 28.6-----
2024-02-29 04:30 pm SW 15.9 20.0----30.35- 28.4-----
2024-02-29 04:20 pm SW 15.0 18.1----30.35- 28.0-----
2024-02-29 04:10 pm SW 14.0 18.1----30.35- 27.3-----
2024-02-29 04:00 pm SW 17.1 20.0----30.35-0.04 27.3-----
2024-02-29 03:50 pmSSW 15.0 21.0----30.35- 27.1-----
2024-02-29 03:40 pm SW 15.0 21.0----30.36- 26.8-----
2024-02-29 03:30 pmSSW 14.0 19.0----30.37- 26.4-----
2024-02-29 03:20 pm SW 15.0 19.0----30.37- 26.2-----
2024-02-29 03:10 pm SW 15.9 22.9----30.36- 26.1-----
2024-02-29 03:00 pm SW 15.9 22.0----30.36-0.04 25.7-----
2024-02-29 02:50 pm SW 13.0 17.1----30.36- 25.3-----
2024-02-29 02:40 pmSSW 14.0 18.1----30.37- 25.0-----
2024-02-29 02:30 pm SW 14.0 17.1----30.37- 24.6-----
2024-02-29 02:20 pmSSW 12.0 19.0----30.38- 24.4-----
2024-02-29 02:10 pm SW 14.0 18.1----30.38- 24.3-----
2024-02-29 02:00 pmSSW 11.1 18.1----30.38-0.02 23.9-----
2024-02-29 01:50 pmSSW 15.9 20.0----30.38- 23.5-----
2024-02-29 01:40 pm SW 13.0 18.1----30.39- 23.4-----
2024-02-29 01:30 pm SW 13.0 18.1----30.39- 23.0-----
2024-02-29 01:20 pmWSW 15.0 20.0----30.39- 22.8-----
2024-02-29 01:10 pm SW 13.0 20.0----30.39- 22.5-----
2024-02-29 01:00 pm SW 15.0 17.1----30.39+0.00 22.3-----
2024-02-29 12:50 pm SW 15.9 21.0----30.40- 22.5-----
2024-02-29 12:40 pm SW 14.0 19.0----30.40- 21.9-----
2024-02-29 12:30 pm SW 14.0 17.1----30.40- 21.9-----
2024-02-29 12:20 pm SW 12.0 18.1----30.40- 21.4-----
2024-02-29 12:10 pmWSW 14.0 20.0----30.40- 21.2-----
2024-02-29 12:00 pmWSW 14.0 19.0----30.40+0.02 21.2-----
2024-02-29 11:50 amWSW 15.9 21.0----30.40- 20.8-----
2024-02-29 11:40 amWSW 13.0 19.0----30.40- 20.7-----
2024-02-29 11:30 amWSW 14.0 19.0----30.40- 20.7-----
2024-02-29 11:20 amWSW 13.0 22.0----30.40- 20.5-----
2024-02-29 11:10 am W 20.0 22.9----30.40- 20.3-----
2024-02-29 11:00 amWSW 15.9 18.1----30.40+0.04 20.5-----
2024-02-29 10:50 amWSW 13.0 19.0----30.40- 19.6-----
2024-02-29 10:40 amWSW 15.0 20.0----30.40- 19.6-----
2024-02-29 10:30 am W 15.0 22.0----30.39- 19.4-----
2024-02-29 10:20 amWSW 18.1 22.0----30.39- 19.2-----
2024-02-29 10:10 am W 14.0 22.0----30.39- 18.9-----
2024-02-29 10:00 am W 15.9 25.1----30.39+0.06 19.0-----
2024-02-29 09:50 am W 15.9 22.9----30.39- 18.7-----
2024-02-29 09:40 am W 17.1 22.0----30.39- 18.3-----
2024-02-29 09:30 am W 15.9 24.1----30.38- 18.1-----
2024-02-29 09:20 amWSW 17.1 25.1----30.38- 18.0-----
2024-02-29 09:10 amWSW 19.0 25.1----30.38- 17.8-----
2024-02-29 09:00 am W 21.0 25.1----30.38+0.07 18.0-----
2024-02-29 08:50 amWSW 22.0 28.9----30.38- 17.6-----
2024-02-29 08:40 amWSW 22.0 27.0----30.37- 17.6-----
2024-02-29 08:30 amWSW 20.0 28.9----30.37- 17.6-----
2024-02-29 08:20 amWSW 22.0 28.0----30.36- 17.4-----
2024-02-29 08:10 amWSW 22.9 27.0----30.36- 17.4-----
2024-02-29 08:00 amWSW 22.0 26.0----30.36+0.08 17.4-----
2024-02-29 07:50 amWSW 22.9 28.0----30.35- 17.4-----
2024-02-29 07:40 amWSW 22.0 26.0----30.35- 17.6-----
2024-02-29 07:30 amWSW 22.9 26.0----30.34- 17.2-----
2024-02-29 07:20 amWSW 21.0 27.0----30.34- 17.4-----
2024-02-29 07:10 amWSW 21.0 28.0----30.33- 17.2-----
2024-02-29 07:00 amWSW 21.0 25.1----30.33+0.08 17.1-----
2024-02-29 06:50 am W 20.0 25.1----30.32- 17.1-----
2024-02-29 06:40 am W 20.0 24.1----30.32- 16.9-----
2024-02-29 06:30 amWSW 20.0 24.1----30.32- 17.1-----
2024-02-29 06:20 amWSW 20.0 26.0----30.32- 17.1-----
2024-02-29 06:10 am W 21.0 27.0----30.31- 17.2-----
2024-02-29 06:00 amWSW 24.1 27.0----30.31+0.08 17.4-----
2024-02-29 05:50 amWSW 24.1 28.0----30.30- 17.2-----
2024-02-29 05:40 amWSW 22.0 26.0----30.30- 17.4-----
2024-02-29 05:30 amWSW 22.0 26.0----30.30- 17.6-----
2024-02-29 05:20 amWSW 22.0 28.0----30.29- 17.6-----
2024-02-29 05:10 am W 21.0 28.9----30.29- 17.6-----
2024-02-29 05:00 am W 22.0 26.0----30.28+0.07 17.8-----
2024-02-29 04:50 am W 21.0 25.1----30.27- 17.8-----
2024-02-29 04:40 am W 18.1 22.9----30.26- 17.8-----
2024-02-29 04:30 am W 19.0 22.9----30.27- 17.6-----
2024-02-29 04:20 am W 19.0 24.1----30.26- 17.6-----
2024-02-29 04:10 am W 17.1 24.1----30.25- 17.8-----
2024-02-29 04:00 am W 15.9 22.0----30.25+0.07 17.6-----
2024-02-29 03:50 am W 19.0 26.0----30.25- 18.0-----
2024-02-29 03:40 am W 15.0 20.0----30.25- 17.8-----
2024-02-29 03:30 am W 18.1 25.1----30.24- 18.0-----
2024-02-29 03:20 am W 15.9 20.0----30.24- 18.3-----
2024-02-29 03:10 am W 18.1 22.9----30.23- 18.3-----
2024-02-29 03:00 am W 18.1 25.1----30.23+0.07 18.5-----
2024-02-29 02:50 am W 18.1 24.1----30.23- 18.5-----
2024-02-29 02:40 am W 18.1 26.0----30.23- 18.5-----
2024-02-29 02:30 am W 21.0 25.1----30.22- 18.7-----
2024-02-29 02:20 am W 20.0 24.1----30.22- 18.9-----
2024-02-29 02:10 am W 21.0 25.1----30.22- 19.0-----
2024-02-29 02:00 am W 15.0 19.0----30.21+0.07 19.0-----
2024-02-29 01:50 amWNW 14.0 21.0----30.21- 19.0-----
2024-02-29 01:40 amWNW 17.1 21.0----30.20- 19.0-----
2024-02-29 01:30 amWNW 18.1 22.0----30.20- 19.0-----
2024-02-29 01:20 amWNW 19.0 25.1----30.19- 19.0-----
2024-02-29 01:10 amWNW 20.0 25.1----30.19- 19.4-----
2024-02-29 01:00 amWNW 15.9 22.9----30.18+0.06 19.8-----
2024-02-29 12:50 amWNW 21.0 25.1----30.17- 20.1-----
2024-02-29 12:40 am W 18.1 24.1----30.17- 19.9-----
2024-02-29 12:30 am W 17.1 24.1----30.17- 20.1-----
2024-02-29 12:20 am W 19.0 22.0----30.17- 20.1-----
2024-02-29 12:10 am W 19.0 24.1----30.16- 19.9-----
2024-02-29 12:00 am W 19.0 24.1----30.16+0.06 20.3-----
2024-02-28 11:50 pm W 20.0 25.1----30.15- 20.3-----
2024-02-28 11:40 pm W 20.0 27.0----30.15- 20.1-----
2024-02-28 11:30 pm W 19.0 26.0----30.15- 20.5-----
2024-02-28 11:20 pm W 21.0 25.1----30.14- 20.3-----
2024-02-28 11:10 pm W 19.0 26.0----30.15- 20.3-----
2024-02-28 11:00 pm W 22.0 28.9----30.14+0.06 19.6-----
2024-02-28 10:50 pm W 22.9 28.9----30.14- 20.1-----